Printer-friendly version

IAU Minor Planet Center

Minor Planet Center

MPEC 2000-G53: 2000 GM137

The following Minor Planet Electronic Circular may be linked-to from your own Web pages, but must not otherwise be redistributed electronically.


Read MPEC 2000-G52 Read MPEC 2000-H01


M.P.E.C. 2000-G53                                Issued 2000 Apr. 15, 19:17 UT

     The Minor Planet Electronic Circulars contain information on unusual
         minor planets and routine data on comets.  They are published
   on behalf of Commission 20 of the International Astronomical Union by the
          Minor Planet Center, Smithsonian Astrophysical Observatory,
                          Cambridge, MA 02138, U.S.A.

             Prepared using the Tamkin Foundation Computer Network

             BMARSDEN@CFA.HARVARD.EDU or GWILLIAMS@CFA.HARVARD.EDU
          URL http://cfa-www.harvard.edu/iau/mpc.html  ISSN 1523-6714

                                  2000 GM137

Observations:
     K00GD7M*1C2000 04 02.36595 12 01 55.23 +19 41 39.1          22.2 R      568
     K00GD7M 1C2000 04 02.40443 12 01 54.37 +19 41 42.1          22.1 R      568
     K00GD7M 1C2000 04 02.44922 12 01 53.35 +19 41 46.5          22.1 R      568
     K00GD7M 1C2000 04 04.42535 12 01 10.44 +19 44 27.5          22.8 R      568
     K00GD7M 1C2000 04 04.43001 12 01 10.33 +19 44 27.9          22.8 R      568
     K00GD7M 1C2000 04 13.42193 11 58 06.30 +19 52 54.6          22.9 R      568
     K00GD7M 1C2000 04 13.42891 11 58 06.14 +19 52 54.9          22.9 R      568

Observer details:
568 Mauna Kea.  Observers S. S. Sheppard, D. C. Jewitt, C. A. Trujillo.
    3.6-m Canada-France-Hawaii Telescope + CCD, 2.2-m University of Hawaii
    reflector + CCD.

Orbital elements:
2000 GM137
Epoch 2000 Apr. 6.0 TT = JDT 2451640.5                  Marsden
M 350.37323              (2000.0)            P               Q
n   0.04465324     Peri.   97.12251     -0.95300804     +0.13097605
a   7.8686589      Node    90.67614     -0.23191568     -0.89557352
e   0.1105544      Incl.   15.85402     +0.19491227     -0.42519801
P  22.1            H   14.4           G   0.15
From 7 observations 2000 Apr. 2-13.

Ephemeris:
2000 GM137               a,e,i = 7.87, 0.11, 16                  q = 6.9987
Date    TT    R. A. (2000) Decl.     Delta      r     Elong.  Phase     V
2000 04 06    12 00.61   +19 46.4    6.131    7.014   149.8     4.1    22.9
2000 04 16    11 57.30   +19 54.2    6.203    7.013   141.1     5.2    23.0
2000 04 26    11 54.54   +19 54.1    6.299    7.011   131.9     6.1    23.1
2000 05 06    11 52.49   +19 46.2    6.414    7.010   122.6     7.0    23.2
2000 05 16    11 51.25   +19 31.0    6.545    7.009   113.4     7.6    23.3
2000 05 26    11 50.88   +19 09.2    6.687    7.008   104.4     8.0    23.3
2000 06 05    11 51.39   +18 41.6    6.836    7.007    95.5     8.3    23.4
2000 06 15    11 52.75   +18 09.0    6.988    7.006    86.9     8.3    23.4
2000 06 25    11 54.93   +17 32.2    7.138    7.005    78.4     8.2    23.5
2000 07 05    11 57.86   +16 52.1    7.284    7.004    70.1     7.8    23.5
2000 07 15    12 01.48   +16 09.3    7.422    7.003    62.0     7.4    23.5
2000 07 25    12 05.70   +15 24.6    7.550    7.002    54.1     6.7    23.5
2000 08 04    12 10.45   +14 38.5    7.664    7.002    46.3     6.0    23.5
2000 08 14    12 15.66   +13 51.8    7.762    7.001    38.8     5.2    23.5
2000 08 24    12 21.26   +13 04.9    7.843    7.001    31.5     4.3    23.5

Brian G. Marsden             (C) Copyright 2000 MPC           M.P.E.C. 2000-G53

Read MPEC 2000-G52 Read MPEC 2000-H01


Our Web policy. Index to the CBAT/MPC/ICQ pages.


Valid HTML 4.01!